Time,TemperatureF,DewpointF,PressureIn,WindDirection,WindDirectionDegrees,WindSpeedMPH,WindSpeedGustMPH,Humidity,HourlyPrecipIn,Conditions,Clouds,dailyrainin,SoftwareType,DateUTC
2013-09-10 00:10:00,78.2,73.0,29.92,ESE,108,0.0,2.0,84,0.00,,,0.00,weatherlink.com 1.10,2013-09-10 04:10:00,
2013-09-10 00:25:00,78.0,73.0,29.92,ESE,106,1.0,2.0,84,0.00,,,0.00,weatherlink.com 1.10,2013-09-10 04:25:00,
2013-09-10 00:40:00,77.7,73.0,29.93,East,93,2.0,2.0,85,0.00,,,0.00,weatherlink.com 1.10,2013-09-10 04:40:00,
2013-09-10 00:55:00,77.4,73.0,29.93,SE,134,1.0,6.0,86,0.00,,,0.00,weatherlink.com 1.10,2013-09-10 04:55:00,
2013-09-10 01:10:00,77.4,73.0,29.93,East,91,1.0,3.0,86,0.00,,,0.00,weatherlink.com 1.10,2013-09-10 05:10:00,
2013-09-10 01:25:00,77.4,73.0,29.93,NW,322,1.0,1.0,86,0.00,,,0.00,weatherlink.com 1.10,2013-09-10 05:25:00,
2013-09-10 01:40:00,77.2,73.0,29.93,SE,132,0.0,2.0,87,0.00,,,0.00,weatherlink.com 1.10,2013-09-10 05:40:00,
2013-09-10 01:55:00,77.0,73.0,29.94,NE,56,0.0,2.0,87,0.00,,,0.00,weatherlink.com 1.10,2013-09-10 05:55:00,
2013-09-10 02:10:00,76.6,73.0,29.94,ESE,102,0.0,1.0,88,0.00,,,0.00,weatherlink.com 1.10,2013-09-10 06:10:00,
2013-09-10 02:25:00,76.6,73.0,29.94,ESE,102,0.0,0.0,88,0.00,,,0.00,weatherlink.com 1.10,2013-09-10 06:25:00,
2013-09-10 02:40:00,76.6,73.0,29.94,ESE,109,0.0,1.0,88,0.00,,,0.00,weatherlink.com 1.10,2013-09-10 06:40:00,
2013-09-10 02:55:00,76.7,73.0,29.94,East,94,1.0,1.0,87,0.00,,,0.00,weatherlink.com 1.10,2013-09-10 06:55:00,
2013-09-10 03:10:00,76.7,73.0,29.94,East,93,1.0,2.0,87,0.00,,,0.00,weatherlink.com 1.10,2013-09-10 07:10:00,
2013-09-10 03:25:00,76.4,73.0,29.94,ENE,76,0.0,2.0,88,0.00,,,0.00,weatherlink.com 1.10,2013-09-10 07:25:00,
2013-09-10 03:40:00,76.1,72.0,29.95,East,82,0.0,0.0,88,0.00,,,0.00,weatherlink.com 1.10,2013-09-10 07:40:00,
2013-09-10 03:55:00,75.5,72.0,29.95,East,90,0.0,0.0,89,0.00,,,0.00,weatherlink.com 1.10,2013-09-10 07:55:00,
2013-09-10 04:10:00,75.0,72.0,29.95,ESE,109,0.0,0.0,91,0.00,,,0.00,weatherlink.com 1.10,2013-09-10 08:10:00,
2013-09-10 04:25:00,75.0,72.0,29.95,East,91,0.0,0.0,91,0.00,,,0.00,weatherlink.com 1.10,2013-09-10 08:25:00,
2013-09-10 04:40:00,74.9,73.0,29.95,WSW,238,0.0,0.0,92,0.00,,,0.00,weatherlink.com 1.10,2013-09-10 08:40:00,
2013-09-10 04:55:00,74.8,72.0,29.96,South,173,0.0,0.0,92,0.00,,,0.00,weatherlink.com 1.10,2013-09-10 08:55:00,
2013-09-10 05:10:00,74.8,72.0,29.96,SW,218,0.0,1.0,92,0.00,,,0.00,weatherlink.com 1.10,2013-09-10 09:10:00,
2013-09-10 05:25:00,74.8,72.0,29.96,SSE,153,0.0,2.0,92,0.00,,,0.00,weatherlink.com 1.10,2013-09-10 09:25:00,
2013-09-10 05:41:00,74.6,73.0,29.97,ESE,108,0.0,0.0,93,0.00,,,0.00,weatherlink.com 1.10,2013-09-10 09:41:00,
2013-09-10 05:56:00,74.4,72.0,29.97,East,82,1.0,2.0,93,0.00,,,0.00,weatherlink.com 1.10,2013-09-10 09:56:00,
2013-09-10 06:11:00,74.4,72.0,29.97,ESE,102,0.0,3.0,93,0.00,,,0.00,weatherlink.com 1.10,2013-09-10 10:11:00,
2013-09-10 06:26:00,74.2,72.0,29.98,ESE,102,0.0,0.0,93,0.00,,,0.00,weatherlink.com 1.10,2013-09-10 10:26:00,
2013-09-10 06:41:00,73.9,72.0,29.98,East,89,0.0,2.0,93,0.00,,,0.00,weatherlink.com 1.10,2013-09-10 10:41:00,
2013-09-10 06:56:00,73.7,72.0,29.98,East,94,0.0,1.0,94,0.00,,,0.00,weatherlink.com 1.10,2013-09-10 10:56:00,
2013-09-10 07:11:00,73.6,72.0,29.99,East,90,0.0,2.0,94,0.00,,,0.00,weatherlink.com 1.10,2013-09-10 11:11:00,
2013-09-10 07:26:00,73.6,72.0,29.99,SE,128,0.0,0.0,95,0.00,,,0.00,weatherlink.com 1.10,2013-09-10 11:26:00,
2013-09-10 07:41:00,73.7,72.0,30.00,East,95,1.0,2.0,94,0.00,,,0.00,weatherlink.com 1.10,2013-09-10 11:41:00,
2013-09-10 07:56:00,74.0,72.0,30.00,East,101,0.0,2.0,94,0.00,,,0.00,weatherlink.com 1.10,2013-09-10 11:56:00,
2013-09-10 08:11:00,74.7,73.0,30.00,ESE,106,0.0,1.0,94,0.00,,,0.00,weatherlink.com 1.10,2013-09-10 12:11:00,
2013-09-10 08:26:00,75.6,73.0,30.00,ESE,103,1.0,2.0,92,0.00,,,0.00,weatherlink.com 1.10,2013-09-10 12:26:00,
2013-09-10 08:41:00,76.7,74.0,30.00,East,101,0.0,1.0,90,0.00,,,0.00,weatherlink.com 1.10,2013-09-10 12:41:00,
2013-09-10 08:56:00,77.7,74.0,30.01,South,191,0.0,2.0,88,0.00,,,0.00,weatherlink.com 1.10,2013-09-10 12:56:00,
2013-09-10 09:11:00,78.1,74.0,30.01,SW,231,0.0,4.0,87,0.00,,,0.00,weatherlink.com 1.10,2013-09-10 13:11:00,
2013-09-10 09:26:00,79.0,74.0,30.01,SSW,204,0.0,3.0,85,0.00,,,0.00,weatherlink.com 1.10,2013-09-10 13:26:00,
2013-09-10 09:41:00,80.2,75.0,30.02,SSE,148,0.0,3.0,83,0.00,,,0.00,weatherlink.com 1.10,2013-09-10 13:41:00,
2013-09-10 09:56:00,81.2,75.0,30.02,South,191,0.0,4.0,82,0.00,,,0.00,weatherlink.com 1.10,2013-09-10 13:56:00,
2013-09-10 10:11:00,81.8,75.0,30.02,SE,124,3.0,4.0,80,0.00,,,0.00,weatherlink.com 1.10,2013-09-10 14:11:00,
2013-09-10 10:26:00,83.1,76.0,30.02,NE,40,0.0,2.0,80,0.00,,,0.00,weatherlink.com 1.10,2013-09-10 14:26:00,
2013-09-10 10:41:00,83.6,76.0,30.02,SW,214,1.0,3.0,77,0.00,,,0.00,weatherlink.com 1.10,2013-09-10 14:41:00,
2013-09-10 10:56:00,84.6,77.0,30.02,ESE,115,1.0,4.0,77,0.00,,,0.00,weatherlink.com 1.10,2013-09-10 14:56:00,
2013-09-10 11:11:00,86.0,76.0,30.02,ENE,72,1.0,4.0,72,0.00,,,0.00,weatherlink.com 1.10,2013-09-10 15:11:00,
2013-09-10 11:26:00,86.4,76.0,30.02,WSW,246,0.0,4.0,72,0.00,,,0.00,weatherlink.com 1.10,2013-09-10 15:26:00,
2013-09-10 11:41:00,87.2,77.0,30.02,SW,225,0.0,5.0,71,0.00,,,0.00,weatherlink.com 1.10,2013-09-10 15:41:00,
2013-09-10 11:56:00,88.2,77.0,30.02,NE,35,3.0,5.0,69,0.00,,,0.00,weatherlink.com 1.10,2013-09-10 15:56:00,
2013-09-10 12:11:00,88.1,77.0,30.02,NNW,339,1.0,4.0,70,0.00,,,0.00,weatherlink.com 1.10,2013-09-10 16:11:00,
2013-09-10 12:26:00,88.4,77.0,30.02,East,98,0.0,3.0,68,0.00,,,0.00,weatherlink.com 1.10,2013-09-10 16:26:00,
2013-09-10 12:42:00,89.0,77.0,30.01,North,349,0.0,3.0,67,0.00,,,0.00,weatherlink.com 1.10,2013-09-10 16:42:00,
2013-09-10 12:57:00,89.2,76.0,30.01,East,89,1.0,4.0,65,0.00,,,0.00,weatherlink.com 1.10,2013-09-10 16:57:00,
2013-09-10 13:12:00,89.8,75.0,30.01,South,191,1.0,5.0,62,0.00,,,0.00,weatherlink.com 1.10,2013-09-10 17:12:00,
2013-09-10 13:27:00,90.8,75.0,30.01,NW,307,1.0,5.0,60,0.00,,,0.00,weatherlink.com 1.10,2013-09-10 17:27:00,
2013-09-10 13:42:00,92.1,77.0,30.01,NNW,346,1.0,3.0,61,0.00,,,0.00,weatherlink.com 1.10,2013-09-10 17:42:00,
2013-09-10 13:57:00,91.8,76.0,30.01,WSW,243,3.0,5.0,61,0.00,,,0.00,weatherlink.com 1.10,2013-09-10 17:57:00,
2013-09-10 14:12:00,93.1,77.0,30.01,NNE,12,2.0,3.0,60,0.00,,,0.00,weatherlink.com 1.10,2013-09-10 18:12:00,
2013-09-10 14:27:00,93.7,76.0,30.00,NE,46,1.0,3.0,56,0.00,,,0.00,weatherlink.com 1.10,2013-09-10 18:27:00,
2013-09-10 14:42:00,93.3,74.0,30.00,North,10,7.0,7.0,54,0.00,,,0.00,weatherlink.com 1.10,2013-09-10 18:42:00,
2013-09-10 14:57:00,92.4,77.0,29.99,WSW,255,1.0,4.0,60,0.00,,,0.00,weatherlink.com 1.10,2013-09-10 18:57:00,
2013-09-10 15:12:00,93.7,75.0,29.98,NNE,25,2.0,3.0,54,0.00,,,0.00,weatherlink.com 1.10,2013-09-10 19:12:00,
2013-09-10 15:27:00,93.5,73.0,29.97,South,188,2.0,7.0,52,0.00,,,0.00,weatherlink.com 1.10,2013-09-10 19:27:00,
2013-09-10 15:42:00,92.0,75.0,29.97,SE,125,0.0,3.0,57,0.00,,,0.00,weatherlink.com 1.10,2013-09-10 19:42:00,
2013-09-10 15:57:00,90.6,75.0,29.96,WSW,249,0.0,2.0,61,0.00,,,0.00,weatherlink.com 1.10,2013-09-10 19:57:00,
2013-09-10 16:12:00,89.2,74.0,29.96,South,184,1.0,6.0,62,0.00,,,0.00,weatherlink.com 1.10,2013-09-10 20:12:00,
2013-09-10 16:27:00,84.5,71.0,29.97,SE,127,2.0,6.0,65,0.00,,,0.00,weatherlink.com 1.10,2013-09-10 20:27:00,
2013-09-10 16:42:00,82.1,71.0,29.96,SE,132,0.0,5.0,68,0.00,,,0.00,weatherlink.com 1.10,2013-09-10 20:42:00,
2013-09-10 16:57:00,81.3,75.0,29.96,ENE,73,0.0,1.0,81,0.01,,,0.01,weatherlink.com 1.10,2013-09-10 20:57:00,
2013-09-10 17:12:00,81.1,76.0,29.99,SE,130,0.0,2.0,83,0.01,,,0.01,weatherlink.com 1.10,2013-09-10 21:12:00,
2013-09-10 17:27:00,81.0,76.0,30.00,SSE,166,1.0,3.0,85,0.01,,,0.01,weatherlink.com 1.10,2013-09-10 21:27:00,
2013-09-10 17:42:00,77.9,72.0,30.01,SE,126,1.0,7.0,82,0.01,,,0.01,weatherlink.com 1.10,2013-09-10 21:42:00,
2013-09-10 17:57:00,76.1,70.0,30.02,ESE,110,1.0,8.0,82,0.00,,,0.01,weatherlink.com 1.10,2013-09-10 21:57:00,
2013-09-10 18:12:00,75.0,70.0,30.02,ESE,120,6.0,9.0,83,0.00,,,0.01,weatherlink.com 1.10,2013-09-10 22:12:00,
2013-09-10 18:27:00,73.9,70.0,30.02,East,89,0.0,7.0,86,0.00,,,0.01,weatherlink.com 1.10,2013-09-10 22:27:00,
2013-09-10 18:42:00,73.5,70.0,30.01,SE,136,0.0,1.0,87,0.00,,,0.01,weatherlink.com 1.10,2013-09-10 22:42:00,
2013-09-10 18:57:00,73.5,70.0,30.02,SE,135,0.0,0.0,87,0.00,,,0.01,weatherlink.com 1.10,2013-09-10 22:57:00,
2013-09-10 19:12:00,73.3,70.0,30.01,SE,136,0.0,1.0,89,0.00,,,0.01,weatherlink.com 1.10,2013-09-10 23:12:00,
2013-09-10 19:27:00,73.2,70.0,30.03,SE,136,0.0,1.0,89,0.00,,,0.01,weatherlink.com 1.10,2013-09-10 23:27:00,
2013-09-10 19:42:00,73.2,70.0,30.02,ESE,108,0.0,0.0,89,0.00,,,0.01,weatherlink.com 1.10,2013-09-10 23:42:00,
2013-09-10 19:57:00,73.3,70.0,30.02,ESE,109,0.0,0.0,89,0.00,,,0.01,weatherlink.com 1.10,2013-09-10 23:57:00,
2013-09-10 20:12:00,73.3,70.0,30.02,ESE,109,0.0,0.0,89,0.00,,,0.01,weatherlink.com 1.10,2013-09-11 00:12:00,
2013-09-10 20:27:00,72.9,70.0,30.01,ESE,109,0.0,0.0,90,0.00,,,0.01,weatherlink.com 1.10,2013-09-11 00:27:00,
2013-09-10 20:42:00,72.5,70.0,30.01,ESE,109,0.0,0.0,91,0.00,,,0.01,weatherlink.com 1.10,2013-09-11 00:42:00,
2013-09-10 20:57:00,72.2,70.0,30.02,ESE,109,0.0,0.0,92,0.00,,,0.01,weatherlink.com 1.10,2013-09-11 00:57:00,
2013-09-10 21:12:00,72.0,69.0,30.02,SE,128,0.0,0.0,91,0.00,,,0.01,weatherlink.com 1.10,2013-09-11 01:12:00,
2013-09-10 21:27:00,72.3,69.0,30.02,ESE,119,0.0,0.0,90,0.00,,,0.01,weatherlink.com 1.10,2013-09-11 01:27:00,
2013-09-10 21:42:00,72.2,69.0,30.02,ESE,114,0.0,0.0,90,0.00,,,0.01,weatherlink.com 1.10,2013-09-11 01:42:00,
2013-09-10 21:57:00,71.6,69.0,30.03,SE,127,1.0,1.0,92,0.00,,,0.01,weatherlink.com 1.10,2013-09-11 01:57:00,
2013-09-10 22:12:00,71.4,69.0,30.03,SE,136,0.0,3.0,92,0.00,,,0.01,weatherlink.com 1.10,2013-09-11 02:12:00,
2013-09-10 22:27:00,71.1,69.0,30.04,SE,135,0.0,1.0,92,0.00,,,0.01,weatherlink.com 1.10,2013-09-11 02:27:00,
2013-09-10 22:42:00,70.9,69.0,30.04,ESE,123,0.0,1.0,93,0.00,,,0.01,weatherlink.com 1.10,2013-09-11 02:42:00,
2013-09-10 22:57:00,70.6,69.0,30.04,ESE,103,0.0,2.0,93,0.00,,,0.01,weatherlink.com 1.10,2013-09-11 02:57:00,
2013-09-10 23:12:00,70.3,68.0,30.05,ESE,103,0.0,0.0,93,0.00,,,0.01,weatherlink.com 1.10,2013-09-11 03:12:00,
2013-09-10 23:27:00,70.1,68.0,30.04,ESE,103,0.0,0.0,94,0.00,,,0.01,weatherlink.com 1.10,2013-09-11 03:27:00,
2013-09-10 23:42:00,69.8,68.0,30.04,ESE,103,0.0,0.0,94,0.00,,,0.01,weatherlink.com 1.10,2013-09-11 03:42:00,
2013-09-10 23:57:00,69.7,68.0,30.04,ESE,103,0.0,0.0,95,0.00,,,0.00,weatherlink.com 1.10,2013-09-11 03:57:00,